Total_Precipitation_Accumulation
0.20 0.27 0.35 0.39 0.30 0.29 0.33 0.40 0.56 0.56 0.72 0.96 1.04 0.97 1.03 1.08 0.89 0.80 0.86 0.82 0.73 0.83 1.02 1.13 1.15 1.15 1.09 1.12 1.18 1.33 1.59 1.75 1.83 1.87 1.80 1.72 1.57 1.44 1.40 1.41 1.38 1.42 1.55 1.66
0.23 0.31 0.38 0.41 0.33 0.26 0.26 0.29 0.35 0.45 0.68 0.78 0.75 0.82 0.90 0.91 0.90 0.92 0.98 0.92 0.84 0.84 0.90 1.06 1.16 1.22 1.25 1.33 1.39 1.45 1.48 1.54 1.69 1.80 1.81 1.74 1.55 1.45 1.49 1.49 1.46 1.44 1.45 1.56
0.37 0.37 0.46 0.51 0.39 0.36 0.31 0.28 0.38 0.60 0.82 0.79 0.76 0.84 0.81 0.83 0.81 0.94 0.99 0.88 0.83 0.86 0.91 0.97 1.00 1.10 1.36 1.38 1.36 1.38 1.45 1.55 1.70 1.74 1.71 1.64 1.49 1.47 1.50 1.48 1.51 1.54 1.50 1.52
0.49 0.64 0.78 0.55 0.36 0.37 0.37 0.40 0.49 0.61 0.69 0.70 0.69 0.75 0.78 0.75 0.74 0.72 0.77 0.74 0.76 0.84 0.92 0.93 0.91 0.92 1.04 1.19 1.31 1.38 1.43 1.50 1.60 1.62 1.68 1.73 1.66 1.57 1.60 1.62 1.55 1.56 1.57 1.56
0.63 0.81 0.69 0.48 0.42 0.44 0.52 0.60 0.62 0.68 0.71 0.71 0.71 0.84 0.94 0.77 0.69 0.65 0.65 0.71 0.82 0.94 0.92 0.91 0.90 0.92 1.03 1.17 1.31 1.46 1.51 1.55 1.55 1.64 1.78 1.81 1.69 1.65 1.70 1.69 1.58 1.55 1.55 1.54
0.76 0.96 0.89 0.69 0.53 0.47 0.61 1.03 0.77 0.72 0.76 0.78 0.82 1.05 1.15 0.87 0.75 0.74 0.77 0.81 0.78 0.77 0.78 0.82 0.94 1.03 1.09 1.26 1.48 1.58 1.59 1.68 1.74 1.78 1.89 1.99 2.00 1.93 1.86 1.83 1.76 1.73 1.66 1.65
0.89 1.03 0.88 0.65 0.54 0.62 1.07 1.32 0.96 0.89 0.87 0.87 0.98 0.95 0.92 0.84 0.76 0.76 0.81 0.86 0.86 0.89 0.90 0.95 0.98 1.14 1.35 1.47 1.56 1.63 1.68 1.72 1.90 1.99 2.09 2.25 2.41 2.31 2.24 2.17 2.14 2.09 2.01 1.93
1.14 1.30 1.29 0.79 0.66 0.98 1.25 1.05 1.07 1.09 1.03 1.03 0.92 0.78 0.77 0.80 0.76 0.72 0.74 0.87 0.98 1.11 1.15 1.08 1.06 1.18 1.36 1.49 1.57 1.74 1.78 1.86 1.91 2.05 2.13 2.27 2.63 2.63 2.66 2.66 2.48 2.39 2.30 2.19
1.44 1.44 1.17 1.01 1.06 1.10 1.17 1.14 1.14 1.02 0.91 0.93 0.89 0.83 0.86 0.94 0.92 0.82 0.78 0.89 0.98 1.14 1.23 1.24 1.30 1.43 1.62 1.68 1.76 1.84 1.98 2.10 2.16 2.23 2.39 2.48 2.64 2.70 2.75 2.73 2.58 2.44 2.33 2.14
1.59 1.47 1.33 1.19 1.09 1.13 1.29 1.23 1.11 0.97 0.92 0.94 0.94 0.87 0.84 0.86 0.90 0.88 0.85 0.94 1.06 1.18 1.39 1.51 1.58 1.71 1.85 1.96 2.05 2.16 2.29 2.37 2.40 2.43 2.45 2.50 2.67 2.70 2.72 2.68 2.55 2.46 2.39 2.23
1.73 1.65 1.63 1.44 1.14 1.06 1.09 1.06 0.97 0.98 0.96 0.95 1.00 0.94 0.86 0.83 0.84 0.91 1.03 1.13 1.22 1.39 1.56 1.61 1.72 1.81 1.93 2.13 2.32 2.40 2.41 2.41 2.38 2.39 2.50 2.59 2.58 2.57 2.63 2.67 2.67 2.65 2.60 2.58
1.95 1.73 1.71 1.62 1.32 1.14 1.02 0.95 0.95 1.08 1.11 1.01 1.02 1.05 1.00 1.00 1.01 1.05 1.14 1.27 1.40 1.53 1.68 1.77 1.92 2.04 2.14 2.30 2.51 2.68 2.62 2.54 2.54 2.58 2.61 2.59 2.56 2.50 2.54 2.47 2.43 2.40 2.44 2.51
1.66 1.52 1.49 1.47 1.39 1.23 1.04 0.99 1.00 1.15 1.20 1.16 1.10 1.10 1.12 1.16 1.17 1.17 1.22 1.34 1.44 1.54 1.68 1.77 1.85 2.01 2.16 2.39 2.55 2.69 2.67 2.63 2.67 2.78 2.85 2.79 2.76 2.69 2.70 2.58 2.42 2.24 2.25 2.36
1.58 1.59 1.65 1.54 1.49 1.36 1.21 1.22 1.27 1.39 1.37 1.35 1.34 1.29 1.32 1.39 1.34 1.33 1.43 1.51 1.50 1.61 1.68 1.78 1.85 1.92 2.02 2.25 2.47 2.58 2.62 2.70 2.71 2.73 2.79 2.74 2.75 2.76 2.75 2.63 2.48 2.28 2.18 2.21
1.61 1.69 1.79 1.68 1.56 1.47 1.33 1.30 1.42 1.48 1.46 1.44 1.44 1.54 1.70 1.75 1.62 1.52 1.52 1.60 1.65 1.72 1.69 1.77 1.92 2.05 2.17 2.34 2.45 2.52 2.53 2.48 2.48 2.54 2.62 2.71 2.71 2.61 2.52 2.46 2.37 2.24 2.08 2.07
1.52 1.58 1.68 1.75 1.72 1.62 1.46 1.48 1.55 1.45 1.46 1.59 1.63 1.68 1.69 1.73 1.78 1.73 1.59 1.58 1.73 1.79 1.77 1.79 1.89 2.02 2.20 2.33 2.37 2.43 2.48 2.54 2.52 2.45 2.46 2.51 2.51 2.45 2.36 2.31 2.29 2.23 2.05 2.04
1.72 1.80 1.83 1.93 1.95 1.71 1.62 1.58 1.56 1.54 1.47 1.58 1.67 1.67 1.64 1.67 1.83 1.93 1.87 1.80 1.83 1.85 1.90 1.93 1.93 2.02 2.18 2.41 2.48 2.37 2.25 2.22 2.35 2.33 2.33 2.41 2.45 2.44 2.40 2.37 2.28 2.15 2.00 1.96
1.72 1.71 1.77 1.91 2.02 1.88 1.82 1.76 1.68 1.72 1.72 1.74 1.81 1.73 1.71 1.77 1.85 1.88 1.89 1.83 1.82 1.77 1.78 1.91 1.95 1.95 2.04 2.37 2.60 2.48 2.29 2.16 2.06 2.09 2.17 2.27 2.34 2.37 2.29 2.26 2.20 2.05 1.90 1.85
1.71 1.68 1.70 1.81 1.85 1.85 1.90 1.92 1.81 1.73 1.74 1.78 1.92 1.87 1.88 1.91 1.88 1.78 1.76 1.79 1.81 1.80 1.79 1.86 2.00 1.89 1.92 2.11 2.33 2.27 2.14 2.06 1.98 1.98 2.11 2.28 2.29 2.19 2.12 2.07 2.08 2.02 1.90 1.86
1.76 1.73 1.74 1.76 1.76 1.77 1.77 1.78 1.79 1.78 1.79 1.83 1.83 1.79 1.87 1.91 1.89 1.77 1.76 1.80 1.78 1.84 1.86 1.85 1.71 1.69 1.80 2.01 2.16 2.06 2.08 2.03 1.94 1.90 1.99 2.13 2.15 2.08 1.90 1.81 1.82 1.82 1.73 1.66
1.85 1.80 1.76 1.76 1.78 1.72 1.70 1.75 1.83 1.86 1.91 1.87 1.83 1.80 1.90 1.96 1.92 1.89 1.91 1.94 1.81 1.78 1.77 1.84 1.63 1.56 1.59 1.88 2.05 1.90 1.93 1.97 1.94 1.93 1.98 2.05 2.01 1.92 1.80 1.74 1.67 1.62 1.59 1.59
1.80 1.80 1.78 1.79 1.81 1.78 1.63 1.64 1.74 1.76 1.79 1.76 1.74 1.75 1.86 1.97 2.00 1.93 1.82 1.89 1.87 1.84 1.65 1.61 1.54 1.57 1.60 1.71 1.75 1.88 1.87 1.92 1.95 1.91 1.89 1.91 1.96 1.89 1.75 1.73 1.72 1.67 1.60 1.59
1.73 1.68 1.67 1.75 1.81 1.75 1.55 1.52 1.55 1.62 1.63 1.62 1.69 1.77 1.88 1.93 1.94 1.99 1.83 1.64 1.66 1.74 1.59 1.51 1.50 1.48 1.43 1.37 1.44 1.66 1.76 1.81 1.83 1.83 1.80 1.76 1.79 1.74 1.65 1.60 1.61 1.59 1.57 1.52
1.67 1.58 1.53 1.61 1.65 1.67 1.71 1.63 1.53 1.57 1.56 1.60 1.68 1.79 1.92 1.88 1.75 1.61 1.49 1.53 1.58 1.49 1.35 1.32 1.24 1.15 1.16 1.16 1.33 1.55 1.66 1.68 1.67 1.73 1.71 1.66 1.64 1.60 1.61 1.61 1.56 1.48 1.45 1.38
1.62 1.52 1.50 1.57 1.65 1.72 1.73 1.70 1.63 1.62 1.63 1.65 1.70 1.76 1.78 1.81 1.81 1.62 1.43 1.40 1.48 1.35 1.21 1.22 1.17 1.10 1.03 1.11 1.25 1.41 1.53 1.55 1.57 1.62 1.56 1.47 1.43 1.47 1.54 1.58 1.56 1.50 1.43 1.29
1.56 1.53 1.60 1.64 1.67 1.69 1.70 1.73 1.77 1.74 1.79 1.82 1.76 1.72 1.67 1.64 1.63 1.57 1.49 1.40 1.42 1.36 1.21 1.18 1.14 1.09 1.06 1.14 1.26 1.37 1.44 1.47 1.45 1.49 1.49 1.47 1.44 1.46 1.52 1.48 1.42 1.38 1.30 1.20
1.49 1.50 1.59 1.64 1.63 1.59 1.64 1.81 1.96 1.98 2.01 2.02 2.01 1.91 1.77 1.66 1.59 1.52 1.47 1.44 1.43 1.38 1.31 1.26 1.23 1.18 1.16 1.22 1.33 1.44 1.49 1.52 1.48 1.42 1.42 1.43 1.43 1.37 1.34 1.33 1.29 1.21 1.12 1.09